Tracking 19242 objects as of 17-Aug-2018
HD Live streaming from Space Station
objects crossing your sky now

COSMOS 198

Track COSMOS 198 now!
10-day predictions
COSMOS 198 is classified as:


NORAD ID: 3081
Int'l Code: 1967-127A
Perigee: 909.8 km
Apogee: 939.2 km
Inclination: 65.1 °
Period: 103.4 minutes
Semi major axis: 7295 km
RCS: 2.5177 m2 (large)
Launch date: December 27, 1967
Source: Commonwealth of Independent States (former USSR) (CIS)
Launch site: TYURATAM MISSILE AND SPACE COMPLEX (TTMTR)
aabbcc
Your satellite tracking list
Your tracking list is empty




NASA's NSSDC Master Catalog

Two Line Element Set (TLE):
1  3081U 67127A   18228.90532863 -.00000089 +00000-0 +34238-6 0  9996
2  3081 065.1412 207.0369 0020146 011.5618 348.5906 13.93223172574953
Source of the keplerian elements: AFSPC